Live Position
Loading 3D Globe...
About Zhangjiang Gaoke
Group: 3 satellites
Description loading...
Upcoming Passes
Passes for default location (London). Set your location on the main map for personalized predictions.
Altitude History
Loading altitude history...
No altitude history available
Two-Line Element Set
1 59920U 24105D 26105.97336543 .00003342 00000-0 14955-3 0 9990
2 59920 97.5863 124.3621 0013633 79.6445 280.6326 15.21930697103795
Epoch: Apr 15, 2026 •
Age: 5 hours
Current Status
Altitude 498.2 km
Velocity 7.62 km/s
Sub-Earth Point 37.17°N,
149.4°W
Launch Date May 30, 2024
Age 1.8 years
Type other
Technical Details
Classification Payload
Mass 50.00 kg
Dry Mass 50.00 kg
Total Mass 50.00 kg
Length 2.00 m
Diameter 1.50 m
Span 5.00 m
Shape Box + pan
Manufacturer CGSTL
Bus Type YY-1
Phase Status In Orbit
Owner/State YYAO/CN
Most Searched
Loading...